Paris, TX

10:15 AM CDT on August 22, 2017 (GMT -0500)
Cox

Weather History for KPRX - December, 2012

Change the Weather History Date:

Tuesday, December 4, 2012

  Actual Average Record
Temperature  
Mean Temperature 60 °F -  
Max Temperature 71 °F 56 °F 78 °F (2001)
Min Temperature 46 °F 38 °F 21 °F (2006)
Degree Days  
Heating Degree Days 6    
Growing Degree Days 10 (Base 50)    
Moisture  
Dew Point 49 °F    
Average Humidity 65    
Maximum Humidity 100    
Minimum Humidity 35    
Precipitation  
Precipitation 0.00 in - - ()
Sea Level Pressure  
Sea Level Pressure 30.13 in    
Wind  
Wind Speed 10 mph (NNW)    
Max Wind Speed 21 mph    
Max Gust Speed 25 mph    
Visibility 10 miles    
Events      
Averages and records for this station are not official NWS values.
T = Trace of Precipitation, MM = Missing Value Source: NWS Daily Summary

Daily Weather History Graph

Daily Weather History Graph

Search for Another Location

Airport or City:

Trip Planner

Search our weather history database for the weather conditions in past years. The results will help you decide how hot, cold, wet, or windy it might be!

Date:

Astronomy

Dec. 04, 2012 Rise Set
Actual Time 7:11 AM CST 5:13 PM CST
Civil Twilight 6:43 AM CST 5:40 PM CST
Nautical Twilight 6:12 AM CST 6:11 PM CST
Astronomical Twilight 5:42 AM CST 6:41 PM CST
Moon 10:50 PM CST (12/4) 11:15 AM CST (12/4)
Length of Visible Light 10h 56m
Length of Day
10h 02m
Waning Gibbous, 69% of the Moon is Illuminated
Dec 4
Waning Gibbous
Dec 6
Last Quarter
Dec 13
New
Dec 19
First Quarter
Dec 28
Full

Hourly Weather History & Observations

Time (CST) Temp. Windchill Dew Point Humidity Pressure Visibility Wind Dir Wind Speed Gust Speed Precip Events Conditions
12:15 AM 64.4 °F - 62.6 °F 94% 30.02 in 10.0 mi SSE 6.9 mph - N/A   Clear
12:35 AM 62.6 °F - 60.8 °F 94% 30.02 in 10.0 mi SSE 8.1 mph - N/A   Clear
12:55 AM 64.4 °F - 62.6 °F 94% 30.02 in 10.0 mi SSE 9.2 mph - N/A   Clear
1:15 AM 62.6 °F - 62.6 °F 100% 30.02 in 10.0 mi SSE 8.1 mph - N/A   Clear
1:35 AM 62.6 °F - 62.6 °F 100% 30.03 in 10.0 mi SSE 9.2 mph - N/A   Scattered Clouds
1:55 AM 62.6 °F - 62.6 °F 100% 30.02 in 10.0 mi SSE 9.2 mph - N/A   Partly Cloudy
2:15 AM 62.6 °F - 62.6 °F 100% 30.02 in 10.0 mi South 9.2 mph - N/A   Clear
2:55 AM 64.4 °F - 62.6 °F 94% 30.02 in 10.0 mi South 12.7 mph - N/A   Partly Cloudy
3:15 AM 64.4 °F - 62.6 °F 94% 30.02 in 10.0 mi South 12.7 mph - N/A   Clear
3:35 AM 64.4 °F - 62.6 °F 94% 30.01 in 10.0 mi South 12.7 mph - N/A   Clear
3:55 AM 64.4 °F - 62.6 °F 94% 30.01 in 10.0 mi South 12.7 mph - N/A   Clear
4:15 AM 64.4 °F - 62.6 °F 94% 30.01 in 10.0 mi South 12.7 mph - N/A   Clear
4:35 AM 64.4 °F - 62.6 °F 94% 30.01 in 10.0 mi South 11.5 mph - N/A   Mostly Cloudy
4:55 AM 64.4 °F - 62.6 °F 94% 30.01 in 10.0 mi SSW 12.7 mph - N/A   Mostly Cloudy
5:15 AM 64.4 °F - 62.6 °F 94% 30.02 in 10.0 mi SSW 11.5 mph - N/A   Mostly Cloudy
5:35 AM 64.4 °F - 62.6 °F 94% 30.02 in 10.0 mi SSW 11.5 mph - N/A   Partly Cloudy
6:15 AM 64.4 °F - 62.6 °F 94% 30.05 in 10.0 mi SSW 5.8 mph - N/A   Mostly Cloudy
6:35 AM 64.4 °F - 62.6 °F 94% 30.06 in 10.0 mi SW 4.6 mph - N/A   Overcast
6:55 AM 64.4 °F - 62.6 °F 94% 30.07 in 10.0 mi SW 3.5 mph - N/A   Overcast
7:15 AM 64.4 °F - 62.6 °F 94% 30.08 in 10.0 mi Calm Calm - N/A   Overcast
7:35 AM 64.4 °F - 62.6 °F 94% 30.09 in 10.0 mi Calm Calm - N/A   Overcast
7:55 AM 64.4 °F - 62.6 °F 94% 30.09 in 10.0 mi WSW 3.5 mph - N/A   Overcast
8:15 AM 64.4 °F - 62.6 °F 94% 30.10 in 10.0 mi SW 4.6 mph - N/A   Mostly Cloudy
8:35 AM 66.2 °F - 62.6 °F 88% 30.10 in 10.0 mi SW 8.1 mph - N/A   Overcast
8:55 AM 66.2 °F - 62.6 °F 88% 30.11 in 10.0 mi WSW 8.1 mph - N/A   Mostly Cloudy
9:15 AM 66.2 °F - 62.6 °F 88% 30.12 in 10.0 mi WNW 11.5 mph - N/A   Overcast
9:35 AM 66.2 °F - 60.8 °F 83% 30.14 in 10.0 mi WNW 12.7 mph 18.4 mph N/A   Overcast
9:55 AM 66.2 °F - 60.8 °F 83% 30.14 in 10.0 mi NW 13.8 mph 17.3 mph N/A   Overcast
10:15 AM 66.2 °F - 60.8 °F 83% 30.15 in 10.0 mi NNW 10.4 mph - N/A   Overcast
10:35 AM 66.2 °F - 60.8 °F 83% 30.15 in 10.0 mi North 9.2 mph - N/A   Scattered Clouds
10:55 AM 68.0 °F - 59.0 °F 73% 30.15 in 10.0 mi North 9.2 mph - N/A   Clear
11:15 AM 69.8 °F - 57.2 °F 64% 30.15 in 10.0 mi NNW 12.7 mph - N/A   Partly Cloudy
11:35 AM 69.8 °F - 55.4 °F 60% 30.15 in 10.0 mi NNW 13.8 mph - N/A   Scattered Clouds
11:55 AM 69.8 °F - 55.4 °F 60% 30.15 in 10.0 mi North 13.8 mph - N/A   Mostly Cloudy
12:15 PM 69.8 °F - 53.6 °F 56% 30.15 in 10.0 mi NNW 15.0 mph 20.7 mph N/A   Overcast
12:35 PM 69.8 °F - 51.8 °F 53% 30.14 in 10.0 mi North 17.3 mph - N/A   Overcast
12:55 PM 68.0 °F - 51.8 °F 56% 30.14 in 10.0 mi North 13.8 mph 21.9 mph N/A   Overcast
1:15 PM 69.8 °F - 50.0 °F 49% 30.14 in 10.0 mi NNW 19.6 mph 25.3 mph N/A   Overcast
1:35 PM 71.6 °F - 48.2 °F 43% 30.13 in 10.0 mi North 13.8 mph 23.0 mph N/A   Scattered Clouds
1:55 PM 71.6 °F - 48.2 °F 43% 30.12 in 10.0 mi North 13.8 mph 24.2 mph N/A   Clear
2:15 PM 71.6 °F - 48.2 °F 43% 30.12 in 10.0 mi North 16.1 mph - N/A   Clear
2:35 PM 71.6 °F - 46.4 °F 41% 30.13 in 10.0 mi North 17.3 mph 25.3 mph N/A   Clear
2:55 PM 71.6 °F - 44.6 °F 38% 30.14 in 10.0 mi North 16.1 mph - N/A   Clear
3:15 PM 71.6 °F - 44.6 °F 38% 30.15 in 10.0 mi North 16.1 mph 20.7 mph N/A   Clear
3:35 PM 71.6 °F - 42.8 °F 35% 30.15 in 10.0 mi North 20.7 mph - N/A   Clear
3:55 PM 69.8 °F - 42.8 °F 38% 30.15 in 10.0 mi North 17.3 mph - N/A   Clear
4:15 PM 69.8 °F - 42.8 °F 38% 30.16 in 10.0 mi North 17.3 mph - N/A   Clear
4:35 PM 69.8 °F - 41.0 °F 35% 30.16 in 10.0 mi North 9.2 mph - N/A   Clear
4:55 PM 66.2 °F - 41.0 °F 40% 30.17 in 10.0 mi North 12.7 mph - N/A   Clear
5:15 PM 64.4 °F - 39.2 °F 40% 30.17 in 10.0 mi North 13.8 mph - N/A   Clear
5:35 PM 64.4 °F - 37.4 °F 37% 30.18 in 10.0 mi North 11.5 mph - N/A   Clear
5:55 PM 62.6 °F - 37.4 °F 39% 30.18 in 10.0 mi North 13.8 mph - N/A   Clear
6:15 PM 62.6 °F - 35.6 °F 37% 30.19 in 10.0 mi North 13.8 mph - N/A   Clear
6:35 PM 60.8 °F - 33.8 °F 36% 30.20 in 10.0 mi North 16.1 mph - N/A   Clear
6:55 PM 59.0 °F - 32.0 °F 36% 30.21 in 10.0 mi North 11.5 mph 16.1 mph N/A   Clear
7:15 PM 57.2 °F - 30.2 °F 36% 30.23 in 10.0 mi North 13.8 mph - N/A   Clear
7:35 PM 57.2 °F - 30.2 °F 36% 30.23 in 10.0 mi North 11.5 mph - N/A   Clear
7:55 PM 57.2 °F - 30.2 °F 36% 30.23 in 10.0 mi North 12.7 mph - N/A   Clear
8:15 PM 55.4 °F - 30.2 °F 38% 30.23 in 10.0 mi North 10.4 mph - N/A   Clear
8:35 PM 55.4 °F - 30.2 °F 38% 30.23 in 10.0 mi North 11.5 mph - N/A   Clear
8:55 PM 53.6 °F - 30.2 °F 41% 30.24 in 10.0 mi North 12.7 mph - N/A   Clear
9:15 PM 53.6 °F - 30.2 °F 41% 30.25 in 10.0 mi North 11.5 mph - N/A   Clear
9:35 PM 53.6 °F - 30.2 °F 41% 30.24 in 10.0 mi North 11.5 mph - N/A   Clear
9:55 PM 51.8 °F - 30.2 °F 44% 30.25 in 10.0 mi North 10.4 mph - N/A   Clear
10:15 PM 51.8 °F - 30.2 °F 44% 30.26 in 10.0 mi North 10.4 mph - N/A   Clear
10:35 PM 50.0 °F - 30.2 °F 47% 30.27 in 10.0 mi North 9.2 mph - N/A   Clear
10:55 PM 50.0 °F - 30.2 °F 47% 30.28 in 10.0 mi North 9.2 mph - N/A   Clear
11:15 PM 48.2 °F - 30.2 °F 50% 30.28 in 10.0 mi North 9.2 mph - N/A   Clear
11:35 PM 48.2 °F - 30.2 °F 50% 30.28 in 10.0 mi North 8.1 mph - N/A   Clear
11:55 PM 46.4 °F 42.9 °F 30.2 °F 53% 30.28 in 10.0 mi North 6.9 mph - N/A   Clear